Probability
0 0 0 0 0 0 0 0 0 0 0 0 0 0 0 0 0 0 0 0 0 0 0 0 0 0 0 0 0 0 0 0 0 0 0 0 0 0 0 0 0 0 0
0 0 0 0 0 0 0 0 0 0 0 0 0 0 0 0 0 0 0 0 0 0 0 0 0 0 0 0 0 0 0 0 0 0 0 0 0 0 0 0 0 0 0
0 0 0 0 0 0 0 0 0 0 0 0 0 0 0 0 0 0 0 0 0 0 0 0 0 0 0 0 0 0 0 0 0 0 0 0 0 0 0 0 0 0 0
0 0 0 0 0 0 0 0 0 0 0 0 0 0 0 0 0 0 0 0 0 0 0 0 0 0 0 0 0 0 0 0 0 0 0 0 0 0 0 0 0 0 0
0 0 0 0 0 0 0 0 0 0 0 0 0 0 0 0 0 0 0 0 0 0 0 0 0 0 0 0 0 0 0 0 0 0 0 0 0 0 0 0 0 0 0
0 0 0 0 0 0 0 0 0 0 0 0 0 0 0 0 0 0 0 0 0 0 0 0 0 0 0 0 0 0 0 0 0 0 0 0 0 0 0 0 0 0 0
0 0 0 0 0 0 0 0 0 0 0 0 0 0 0 0 0 0 0 0 0 0 0 0 0 0 0 0 0 0 0 0 0 0 0 0 0 0 0 0 0 0 0
0 0 0 0 0 0 0 0 0 0 0 0 0 0 0 0 0 0 0 0 0 0 0 0 0 0 0 0 0 0 0 0 0 0 0 0 0 0 0 0 0 0 0
0 0 0 0 0 0 0 0 0 0 0 0 0 0 0 0 0 0 0 0 0 0 0 0 0 0 0 0 0 0 0 0 0 0 0 0 0 0 0 0 0 0 0
0 0 0 0 0 0 0 0 0 0 0 0 0 0 0 0 0 0 0 0 0 0 0 0 0 0 0 0 0 0 0 0 0 0 0 0 0 0 0 0 0 0 0
0 0 0 0 0 0 0 0 0 0 0 0 0 0 0 0 0 0 0 0 0 0 0 0 0 0 0 0 0 0 0 0 0 0 0 0 0 0 0 0 0 0 0
0 0 0 0 0 0 0 0 0 0 0 0 0 0 0 0 0 0 0 0 0 0 0 0 0 0 0 0 0 0 0 0 0 0 0 0 0 0 0 0 0 0 0
0 0 0 0 0 0 0 0 0 0 0 0 0 0 0 0 0 0 0 0 0 0 0 0 0 0 0 0 0 0 0 0 0 0 0 0 0 0 0 0 0 0 0
0 0 0 0 0 0 0 0 0 0 0 0 0 0 0 0 0 0 0 0 0 0 0 0 0 0 0 0 0 0 0 0 0 0 0 0 0 0 0 0 0 0 0
0 0 0 0 0 0 0 0 0 0 0 0 0 0 0 0 0 0 0 0 0 0 0 0 0 0 0 0 0 0 0 0 0 0 0 0 0 0 0 0 0 0 0
0 0 0 0 0 0 0 0 0 0 0 0 0 0 0 0 0 0 0 0 0 0 0 0 0 0 0 0 0 0 0 0 0 0 0 0 0 0 0 0 0 0 0
0 0 0 0 0 0 0 0 0 0 0 0 0 0 0 0 0 0 0 0 0 0 0 0 0 0 0 0 0 0 0 0 0 0 0 0 0 0 0 0 0 0 0
0 0 0 0 0 0 0 0 0 0 0 0 0 0 0 0 0 0 0 0 0 0 0 0 0 0 0 0 0 0 0 0 0 0 0 0 0 0 0 0 0 0 0
0 0 0 0 0 0 0 0 0 0 0 0 0 0 0 0 0 0 0 0 0 0 0 0 0 0 0 0 0 0 0 0 0 0 0 0 0 0 0 0 0 0 0
0 0 0 0 0 0 0 0 0 0 0 0 0 0 0 0 0 0 0 0 0 0 0 0 0 0 0 0 0 0 0 0 0 0 0 0 0 0 0 0 0 0 0
0 0 0 0 0 0 0 0 0 0 0 0 0 0 0 0 0 0 0 0 0 0 0 0 0 0 0 0 0 0 0 0 0 0 0 0 0 0 0 0 0 0 0
0 0 0 0 0 0 0 0 0 0 0 0 0 0 0 0 0 0 0 0 0 0 0 0 0 0 0 0 0 0 0 0 0 0 0 0 0 0 0 0 0 0 0
0 0 0 0 0 0 0 0 0 0 0 0 0 0 0 0 0 0 0 0 0 0 0 0 0 0 0 0 0 0 0 0 0 0 0 0 0 0 0 0 0 0 0
0 0 0 0 0 0 0 0 0 0 0 0 0 0 0 0 0 0 0 0 0 0 0 0 0 0 0 0 0 0 0 0 0 0 0 0 0 0 0 0 0 0 0
0 0 0 0 0 0 0 0 0 0 0 0 0 0 0 0 0 0 0 0 0 0 0 0 0 0 0 0 0 0 0 0 0 0 0 0 0 0 0 0 0 0 0
0 0 0 0 0 0 0 0 0 0 0 0 0 0 0 0 0 0 0 0 0 0 0 0 0 0 0 0 0 0 0 0 0 0 0 0 0 0 0 0 0 0 0
Wind_Speed
7 7 8 8 8 8 8 11 12 12 10 8 8 7 6 5 4 4 6 6 6 6 5 4 4 5 5 5 5 4 4 4 2 1 4 5 7 9 8 7 7 8 8
7 6 6 6 7 7 8 8 10 12 11 9 8 6 6 5 6 5 6 7 7 7 6 6 5 5 5 5 5 4 3 3 3 3 2 4 4 5 8 6 6 7 5
8 7 6 6 6 6 7 7 9 10 11 10 6 5 4 4 4 5 5 7 7 7 7 7 6 5 5 5 6 6 6 4 3 4 4 3 4 4 3 5 6 6 5
4 5 5 4 4 4 4 5 6 7 9 10 8 8 6 6 6 4 4 5 7 7 7 6 6 6 5 6 6 6 5 5 4 4 5 6 3 3 5 3 4 5 6
4 5 4 3 2 1 2 2 3 4 6 8 8 8 6 4 3 3 4 4 4 5 5 5 5 5 5 5 5 5 6 5 5 4 3 5 4 5 6 8 5 4 5
5 5 5 4 3 2 1 2 3 3 3 5 6 6 6 5 3 3 2 2 2 2 2 2 2 3 3 4 4 4 5 5 6 5 4 4 4 4 6 9 8 8 6
5 5 5 4 3 2 2 3 4 4 4 5 5 4 4 4 3 2 2 2 2 2 2 1 1 0 1 2 2 3 4 5 5 6 5 5 6 5 5 8 10 11 8
5 5 5 5 4 4 4 5 5 6 6 6 5 5 5 4 3 4 4 4 3 3 3 3 3 3 3 2 2 2 2 3 4 5 5 5 5 5 5 6 8 13 11
6 6 6 6 5 5 5 6 7 7 7 7 7 7 7 6 6 6 5 4 4 3 4 4 4 4 4 4 3 2 3 3 3 4 5 5 4 4 5 5 6 9 16
7 6 6 6 6 6 6 7 8 8 8 8 7 7 7 7 7 6 6 5 5 5 5 5 4 4 5 5 4 3 4 4 4 3 5 5 4 4 4 5 5 6 11
7 6 6 6 6 6 7 7 7 8 8 8 8 8 7 7 7 7 6 5 5 5 5 5 5 5 5 5 4 4 5 5 5 5 5 6 6 5 5 5 5 6 7
8 7 7 6 6 6 6 7 7 8 7 7 8 8 8 7 7 7 6 6 5 5 5 5 5 5 5 5 5 5 5 6 6 7 7 8 6 7 6 6 7 7 7
8 7 6 6 6 6 6 7 7 7 7 7 8 8 8 7 7 6 6 6 5 5 5 5 5 5 5 4 4 5 5 6 6 7 7 8 8 8 7 8 8 8 8
8 8 7 6 6 6 7 7 6 6 7 8 8 8 7 7 6 6 6 5 5 5 5 5 4 4 4 4 4 5 5 6 7 7 7 8 8 8 8 8 8 8 9
10 9 8 7 7 7 7 7 6 6 7 8 8 7 7 6 6 5 5 4 4 4 4 4 4 4 4 3 5 5 6 7 8 8 7 8 9 11 10 9 9 9 9
12 11 10 9 8 8 7 7 7 6 7 8 8 6 5 5 5 4 4 4 4 4 4 4 4 4 4 8 10 8 6 7 8 8 8 8 8 10 14 15 15 14 12
12 13 12 10 9 8 8 8 7 7 8 7 6 5 5 5 4 4 4 5 4 4 4 4 4 5 7 11 11 11 7 7 7 8 8 7 7 8 8 12 15 13 15
14 13 12 10 8 8 8 8 8 7 7 7 6 5 4 4 4 4 4 4 3 4 4 4 5 5 7 12 13 12 7 6 7 7 8 9 9 8 11 10 10 9 9
12 11 11 11 10 9 9 9 8 7 7 6 5 4 4 4 3 4 4 3 4 4 4 4 5 6 8 12 13 12 5 6 8 7 7 8 9 13 16 12 11 12 9
11 12 12 12 11 9 9 10 8 7 6 5 4 4 3 3 2 3 3 3 4 4 5 6 5 6 7 11 13 12 4 7 7 7 7 8 12 15 16 10 10 12 11
12 13 13 11 9 9 10 10 8 7 5 4 4 3 3 2 2 2 2 3 4 5 5 6 6 5 6 9 12 12 5 6 8 8 7 7 14 16 17 14 9 13 13
12 13 12 10 8 7 9 10 8 6 5 4 3 3 2 1 1 2 3 3 4 4 5 5 6 4 4 6 10 13 13 12 8 8 7 8 16 17 17 12 13 16 12
11 10 12 11 8 5 7 9 7 5 4 4 3 2 1 1 1 2 3 3 3 3 4 4 5 5 4 6 12 13 15 15 9 8 13 16 17 15 10 11 13 9 5
10 10 12 11 8 6 6 7 7 5 4 4 2 1 1 2 2 2 2 2 3 3 4 5 6 6 5 5 5 5 6 9 10 8 9 14 14 10 8 6 6 4 4
8 8 10 10 9 8 7 6 5 4 4 3 2 1 1 1 2 2 2 3 4 5 6 5 5 7 8 8 14 11 8 7 8 9 6 4 4 4 4 3 3 3 4
8 8 8 9 9 8 7 5 4 4 4 3 2 1 1 1 2 3 4 7 8 10 12 12 11 8 12 17 17 17 17 17 16 9 5 4 4 4 4 4 4 3 4
Wind_Direction
191 176 172 174 172 176 175 175 176 180 180 183 186 190 195 193 196 199 197 195 192 192 192 193 192 186 198 208 206 207 223 235 210 263 284 269 246 241 242 239 241 245 242
170 155 155 162 174 183 186 184 181 180 183 189 189 191 189 192 197 197 202 201 198 195 195 198 200 199 205 213 211 202 206 227 180 192 267 300 296 254 239 234 236 243 244
167 162 164 172 179 192 195 194 190 184 183 181 179 177 187 191 192 198 201 204 201 198 196 202 204 203 203 216 215 205 206 227 212 197 214 253 271 306 282 240 235 237 240
147 145 153 165 174 191 194 196 195 188 182 177 179 180 189 198 198 192 194 195 197 198 199 201 204 207 207 217 220 211 210 217 230 213 220 235 262 282 296 283 259 246 243
131 121 109 109 98 120 175 191 192 186 177 173 175 183 196 201 193 182 179 184 186 188 193 198 204 212 215 220 222 217 215 216 227 223 213 229 243 236 263 284 280 268 249
106 101 92 85 74 71 113 158 167 164 153 156 163 176 187 186 180 176 157 145 128 136 169 193 202 216 222 225 228 227 226 227 233 237 226 220 230 232 243 274 285 282 269
125 123 120 111 100 100 103 109 117 113 114 123 137 153 166 166 165 156 133 110 86 70 51 45 24 300 278 265 250 244 245 238 240 242 243 239 244 245 253 273 287 289 284
119 113 110 106 99 96 101 102 102 96 92 95 98 102 108 105 94 89 90 84 76 60 39 36 28 19 7 353 333 295 281 273 263 262 258 256 254 248 247 260 284 293 292
126 117 106 101 97 88 88 97 99 94 92 92 90 86 87 89 86 79 75 72 64 52 42 36 27 17 9 359 349 335 322 312 292 287 282 275 272 264 259 256 258 280 295
127 118 107 98 91 86 82 82 87 88 85 84 84 85 79 79 80 77 71 66 57 51 46 38 31 24 17 8 0 345 340 334 321 311 304 295 293 288 278 271 266 262 278
136 125 114 106 101 93 88 87 86 86 84 83 83 81 75 74 73 71 65 60 56 49 43 35 32 26 16 8 2 354 350 339 328 325 317 308 306 301 296 290 281 275 275
131 126 123 117 109 102 95 90 87 87 85 85 84 81 75 72 70 65 56 51 50 45 38 32 32 25 16 9 5 352 346 336 327 323 319 312 313 307 307 304 299 293 289
135 132 130 126 119 111 103 95 91 91 89 86 84 79 72 69 67 61 52 46 43 39 33 32 27 17 5 358 358 347 336 328 320 318 314 311 312 306 305 304 300 298 297
149 145 140 132 125 119 112 105 95 91 91 87 83 77 69 66 62 55 48 40 36 34 27 22 14 2 348 350 354 340 330 322 316 311 307 306 305 304 309 304 299 301 298
164 161 154 145 135 124 115 108 99 91 92 90 84 76 69 64 59 52 43 37 33 26 17 10 0 353 346 350 344 335 328 320 313 308 304 303 304 302 302 301 302 302 297
176 167 159 153 148 140 130 118 106 95 93 90 84 78 74 69 60 49 38 35 28 17 11 5 353 345 336 333 335 334 321 312 306 305 305 304 302 305 307 305 304 302 299
177 172 167 160 152 143 134 126 115 104 99 97 92 84 80 71 55 41 36 28 15 5 359 350 344 330 323 330 329 328 317 304 301 302 305 305 304 303 301 303 304 298 292
176 171 162 151 140 128 122 116 113 112 108 102 95 83 75 65 48 39 30 13 2 353 341 332 328 318 316 324 324 324 313 301 298 299 299 302 306 306 308 305 301 296 292
167 157 148 139 133 131 128 124 119 115 109 103 93 78 68 59 42 29 11 355 346 336 328 320 317 312 312 318 319 323 310 304 303 301 299 299 300 307 315 312 305 303 299
144 139 135 131 133 132 131 128 124 116 108 101 91 76 66 57 35 8 348 340 330 319 320 315 309 301 300 311 318 323 309 306 308 305 300 298 308 313 318 312 306 305 308
131 132 132 133 134 134 132 127 122 116 107 96 88 75 58 36 13 353 339 327 322 317 311 305 303 297 297 309 318 321 314 303 305 305 306 305 313 313 315 315 306 304 310
128 129 128 123 120 126 131 126 120 111 101 95 88 73 48 17 12 350 331 325 318 314 311 310 309 301 305 311 316 319 315 310 301 299 301 304 309 311 314 315 312 316 318
129 127 127 121 109 105 124 126 120 114 109 103 94 79 42 8 353 341 328 322 319 312 312 311 308 308 308 310 315 313 313 312 306 295 299 304 307 311 312 314 320 324 322
130 130 131 130 125 110 100 111 117 115 117 111 98 72 46 16 5 335 311 305 306 304 302 302 303 304 302 300 302 301 308 309 304 298 298 300 302 307 312 317 327 335 331
134 139 143 141 137 129 115 109 111 121 119 112 99 72 44 7 334 313 290 290 261 262 284 285 287 297 300 301 309 311 307 306 299 304 297 300 311 315 319 326 333 343 348
140 139 137 137 136 131 125 118 116 121 121 116 106 81 24 348 325 316 310 303 299 298 296 293 292 289 291 303 308 310 310 311 311 307 296 300 307 313 325 332 334 344 347